Content
SEND FEEDBACK

Daily
Averages
Monthly
Summary
United States of America

POINTE A LA HACHE, LOUISIANA


Home > North America > United States > Louisiana
Elevation: 1 meter     Latitude: 29 35N     Longitude: 089 50W

WEATHER
 
SELECT A DAY
Number of Records: 166,614;   Date Range: 1/1/95 - 8/28/14
 
SHARE

PRINT THIS DATA

[ ← Previous Day ]
WEATHER ALMANAC - 23 JANUARY, 2013
[ Next Day → ]
[ °F ]   °C
Weather ElementAverageHighLow
Temperature11.9 °C20.6 °C (12:55 pm)3.9 °C (3:55 am)
Dewpoint6.1 °C9.4 °C (8:55 am)1.7 °C (6:55 am)
Humidity71.1 %93 % (2:22 am)36 % (1:55 pm)
Barometer1027.8 hPa1030.1 hPa (9:55 am)1026.8 hPa (3:55 pm)
Wind Speed5.1 km/h16.7 km/h (4:55 pm)
Weather ElementAverage
Visibility13.5 km
Wind DirectionESE (109.2 °)

Weather ElementTotal
Precipitation---
Heating Degree Days6.1 (Base 18.3)
Growing Degree Days2.3 (Base 10)
Averaged from 25 records on 23 January, 2013
WEATHER CONDITIONS BREAKOUT
WIND DIRECTION BREAKOUT
WEATHER BY HOUR - 23 JANUARY, 2013
[ °F ]   °C
Local TimeTemperatureDewpointHumidityBarometerVisibilityWind DirectionWind SpeedGust SpeedPrecipitationEventsConditions
2:22 AM4 °C3 °C93 %1027.8 hPaCalmMostly Cloudy
2:55 AM4.4 °C2.2 °C86 %1027.8 hPaCalmOvercast
3:55 AM3.9 °C2.2 °C89 %1027.8 hPaCalmClear
4:55 AM4.4 °C2.2 °C86 %1027.8 hPaCalmClear
5:55 AM4.4 °C2.2 °C86 %1028.1 hPaCalmClear
6:12 AM5 °C3 °C87 %1028.4 hPa11.3 kmCalmFogShallow Fog
6:55 AM3.9 °C1.7 °C86 %1028.8 hPa9.7 kmCalmScattered Clouds
7:55 AM7.8 °C5 °C83 %1028.8 hPa11.3 kmCalmScattered Clouds
8:55 AM13.9 °C9.4 °C74 %1029.8 hPa12.9 kmCalmPartly Cloudy
9:55 AM17.2 °C7.8 °C54 %1030.1 hPa16.1 kmCalmPartly Cloudy
10:55 AM18.9 °C6.7 °C45 %1029.8 hPa16.1 kmSW (220°)11.1 km/hPartly Cloudy
11:55 AM19.4 °C5 °C39 %1028.8 hPa16.1 kmSW (220°)7.4 km/hClear
12:55 PM20.6 °C5.6 °C38 %1027.8 hPa16.1 kmSW (220°)13 km/hPartly Cloudy
1:55 PM20.6 °C5 °C36 %1027.4 hPa16.1 kmSW (220°)7.4 km/hClear
2:55 PM20.6 °C6 °C39 %1027.1 hPa16.1 kmSSW (210°)14.8 km/hClear
3:55 PM19.4 °C7.2 °C45 %1026.8 hPa16.1 kmSSW (200°)14.8 km/hClear
4:55 PM18.3 °C7.8 °C50 %1026.8 hPa16.1 kmSSW (200°)16.7 km/hPartly Cloudy
5:55 PM14.4 °C8.3 °C67 %1026.8 hPa16.1 kmSouth (190°)9.3 km/hPartly Cloudy
6:55 PM12.2 °C8.3 °C77 %1027.1 hPa16.1 kmSW (220°)7.4 km/hClear
7:55 PM11.7 °C8.9 °C83 %1027.1 hPa16.1 kmSSW (200°)7.4 km/hClear
8:55 PM11.1 °C8.9 °C86 %1027.4 hPa16.1 kmSSW (210°)7.4 km/hClear
9:55 PM11.7 °C8.9 °C83 %1027.1 hPa12.9 kmCalmClear
10:55 PM11.7 °C9.4 °C86 %1027.1 hPa12.9 kmSSW (210°)5.6 km/hClear
11:04 PM9 °C8 °C93 %1027.1 hPa2.4 kmSSW (210°)5.6 km/hClear
11:52 PM10 °C8 °C87 %1027.1 hPa2.9 kmCalmClear
Hourly data recorded from KNBG, located 0 kilometers away from Pointe A La Hache, Louisiana







STORIES FROM OUR PARTNERS